Year,Month,Day,Hour,Minute,Value (Times are PST for temperature in C)
2009,02,25,00,00,6.60
2009,02,25,00,01,6.60
2009,02,25,00,02,6.70
2009,02,25,00,03,6.70
2009,02,25,00,04,6.70
2009,02,25,00,05,6.70
2009,02,25,00,06,6.70
2009,02,25,00,07,6.70
2009,02,25,00,08,6.60
2009,02,25,00,09,6.40
2009,02,25,00,10,6.30
2009,02,25,00,11,6.30
2009,02,25,00,12,6.30
2009,02,25,00,13,6.30
2009,02,25,00,14,6.30
2009,02,25,00,15,6.30
2009,02,25,00,16,6.30
2009,02,25,00,17,6.40
2009,02,25,00,18,6.30
2009,02,25,00,19,6.30
2009,02,25,00,20,6.30
2009,02,25,00,21,6.30
2009,02,25,00,22,6.30
2009,02,25,00,23,6.30
2009,02,25,00,24,6.30
2009,02,25,00,25,6.30
2009,02,25,00,26,6.30
2009,02,25,00,27,6.30
2009,02,25,00,28,6.40
2009,02,25,00,29,6.40
2009,02,25,00,30,6.40
2009,02,25,00,31,6.40
2009,02,25,00,32,6.30
2009,02,25,00,33,6.30
2009,02,25,00,34,6.30
2009,02,25,00,35,6.30
2009,02,25,00,36,6.20
2009,02,25,00,37,6.20
2009,02,25,00,38,6.30
2009,02,25,00,39,6.30
2009,02,25,00,40,6.40
2009,02,25,00,41,6.40
2009,02,25,00,42,6.40
2009,02,25,00,43,6.50
2009,02,25,00,44,6.50
2009,02,25,00,45,6.40
2009,02,25,00,46,6.30
2009,02,25,00,47,6.30
2009,02,25,00,48,6.30
2009,02,25,00,49,6.30
2009,02,25,00,50,6.30
2009,02,25,00,51,6.30
2009,02,25,00,52,6.30
2009,02,25,00,53,6.30
2009,02,25,00,54,6.30
2009,02,25,00,55,6.20
2009,02,25,00,56,6.20
2009,02,25,00,57,6.30
2009,02,25,00,58,6.50
2009,02,25,00,59,6.60
2009,02,25,01,00,6.60
2009,02,25,01,01,6.70
2009,02,25,01,02,6.60
2009,02,25,01,03,6.60
2009,02,25,01,04,6.50
2009,02,25,01,05,6.50
2009,02,25,01,06,6.50
2009,02,25,01,07,6.60
2009,02,25,01,08,6.60
2009,02,25,01,09,6.60
2009,02,25,01,10,6.60
2009,02,25,01,11,6.60
2009,02,25,01,12,6.70
2009,02,25,01,13,6.80
2009,02,25,01,14,6.80
2009,02,25,01,15,6.80
2009,02,25,01,16,6.80
2009,02,25,01,17,6.70
2009,02,25,01,18,6.60
2009,02,25,01,19,6.50
2009,02,25,01,20,6.50
2009,02,25,01,21,6.40
2009,02,25,01,22,6.30
2009,02,25,01,23,6.20
2009,02,25,01,24,6.10
2009,02,25,01,25,6.10
2009,02,25,01,26,6.00
2009,02,25,01,27,5.90
2009,02,25,01,28,5.80
2009,02,25,01,29,5.70
2009,02,25,01,30,5.70
2009,02,25,01,31,5.60
2009,02,25,01,32,5.60
2009,02,25,01,33,5.60
2009,02,25,01,34,5.50
2009,02,25,01,35,5.40
2009,02,25,01,36,5.30
2009,02,25,01,37,5.30
2009,02,25,01,38,5.30
2009,02,25,01,39,5.20
2009,02,25,01,40,5.10
2009,02,25,01,41,5.10
2009,02,25,01,42,5.00
2009,02,25,01,43,5.00
2009,02,25,01,44,4.90
2009,02,25,01,45,4.90
2009,02,25,01,46,4.80
2009,02,25,01,47,4.80
2009,02,25,01,48,4.80
2009,02,25,01,49,4.80
2009,02,25,01,50,4.70
2009,02,25,01,51,4.70
2009,02,25,01,52,4.70
2009,02,25,01,53,4.70
2009,02,25,01,54,4.70
2009,02,25,01,55,4.70
2009,02,25,01,56,4.70
2009,02,25,01,57,4.70
2009,02,25,01,58,4.70
2009,02,25,01,59,4.70
2009,02,25,02,00,4.70
2009,02,25,02,01,4.70
2009,02,25,02,02,4.60
2009,02,25,02,03,4.60
2009,02,25,02,04,4.60
2009,02,25,02,05,4.70
2009,02,25,02,06,4.70
2009,02,25,02,07,4.70
2009,02,25,02,08,4.80
2009,02,25,02,09,4.80
2009,02,25,02,10,4.70
2009,02,25,02,11,4.70
2009,02,25,02,12,4.70
2009,02,25,02,13,4.70
2009,02,25,02,14,4.70
2009,02,25,02,15,4.70
2009,02,25,02,16,4.70
2009,02,25,02,17,4.70
2009,02,25,02,18,4.70
2009,02,25,02,19,4.70
2009,02,25,02,20,4.60
2009,02,25,02,21,4.60
2009,02,25,02,22,4.60
2009,02,25,02,23,4.60
2009,02,25,02,24,4.50
2009,02,25,02,25,4.40
2009,02,25,02,26,4.40
2009,02,25,02,27,4.40
2009,02,25,02,28,4.40
2009,02,25,02,29,4.50
2009,02,25,02,30,4.50
2009,02,25,02,31,4.60
2009,02,25,02,32,4.70
2009,02,25,02,33,4.70
2009,02,25,02,34,4.80
2009,02,25,02,35,4.80
2009,02,25,02,36,4.80
2009,02,25,02,37,4.80
2009,02,25,02,38,4.80
2009,02,25,02,39,4.80
2009,02,25,02,40,4.80
2009,02,25,02,41,4.80
2009,02,25,02,42,4.80
2009,02,25,02,43,4.80
2009,02,25,02,44,4.80
2009,02,25,02,45,4.80
2009,02,25,02,46,4.80
2009,02,25,02,47,4.80
2009,02,25,02,48,4.80
2009,02,25,02,49,4.80
2009,02,25,02,50,4.80
2009,02,25,02,51,4.80
2009,02,25,02,52,4.80
2009,02,25,02,53,4.80
2009,02,25,02,54,4.80
2009,02,25,02,55,4.80
2009,02,25,02,56,4.80
2009,02,25,02,57,4.80
2009,02,25,02,58,4.80
2009,02,25,02,59,4.80
2009,02,25,03,00,4.80
2009,02,25,03,01,4.80
2009,02,25,03,02,4.80
2009,02,25,03,03,4.70
2009,02,25,03,04,4.70
2009,02,25,03,05,4.70
2009,02,25,03,06,4.70
2009,02,25,03,07,4.70
2009,02,25,03,08,4.70
2009,02,25,03,09,4.70
2009,02,25,03,10,4.70
2009,02,25,03,11,4.70
2009,02,25,03,12,4.70
2009,02,25,03,13,4.70
2009,02,25,03,14,4.70
2009,02,25,03,15,4.60
2009,02,25,03,16,4.50
2009,02,25,03,17,4.50
2009,02,25,03,18,4.40
2009,02,25,03,19,4.40
2009,02,25,03,20,4.30
2009,02,25,03,21,4.30
2009,02,25,03,22,4.30
2009,02,25,03,23,4.20
2009,02,25,03,24,4.20
2009,02,25,03,25,4.20
2009,02,25,03,26,4.20
2009,02,25,03,27,4.10
2009,02,25,03,28,4.10
2009,02,25,03,29,4.10
2009,02,25,03,30,4.10
2009,02,25,03,31,4.10
2009,02,25,03,32,4.10
2009,02,25,03,33,4.10
2009,02,25,03,34,4.10
2009,02,25,03,35,4.10
2009,02,25,03,36,4.10
2009,02,25,03,37,4.00
2009,02,25,03,38,4.00
2009,02,25,03,39,3.90
2009,02,25,03,40,3.90
2009,02,25,03,41,3.90
2009,02,25,03,42,3.90
2009,02,25,03,43,3.90
2009,02,25,03,44,3.90
2009,02,25,03,45,3.90
2009,02,25,03,46,3.90
2009,02,25,03,47,3.90
2009,02,25,03,48,3.90
2009,02,25,03,49,3.90
2009,02,25,03,50,3.90
2009,02,25,03,51,3.80
2009,02,25,03,52,3.90
2009,02,25,03,53,3.90
2009,02,25,03,54,3.80
2009,02,25,03,55,3.90
2009,02,25,03,56,3.80
2009,02,25,03,57,3.80
2009,02,25,03,58,3.80
2009,02,25,03,59,3.80
2009,02,25,04,00,3.80
2009,02,25,04,01,3.80
2009,02,25,04,02,3.80
2009,02,25,04,03,3.80
2009,02,25,04,04,3.80
2009,02,25,04,05,3.70
2009,02,25,04,06,3.70
2009,02,25,04,07,3.70
2009,02,25,04,08,3.70
2009,02,25,04,09,3.70
2009,02,25,04,10,3.70
2009,02,25,04,11,3.70
2009,02,25,04,12,3.70
2009,02,25,04,13,3.70
2009,02,25,04,14,3.60
2009,02,25,04,15,3.60
2009,02,25,04,16,3.60
2009,02,25,04,17,3.60
2009,02,25,04,18,3.60
2009,02,25,04,19,3.60
2009,02,25,04,20,3.60
2009,02,25,04,21,3.60
2009,02,25,04,22,3.60
2009,02,25,04,23,3.60
2009,02,25,04,24,3.60
2009,02,25,04,25,3.60
2009,02,25,04,26,3.60
2009,02,25,04,27,3.60
2009,02,25,04,28,3.60
2009,02,25,04,29,3.60
2009,02,25,04,30,3.60
2009,02,25,04,31,3.60
2009,02,25,04,32,3.60
2009,02,25,04,33,3.60
2009,02,25,04,34,3.60
2009,02,25,04,35,3.60
2009,02,25,04,36,3.50
2009,02,25,04,37,3.50
2009,02,25,04,38,3.50
2009,02,25,04,39,3.50
2009,02,25,04,40,3.50
2009,02,25,04,41,3.50
2009,02,25,04,42,3.50
2009,02,25,04,43,3.60
2009,02,25,04,44,3.60
2009,02,25,04,45,3.60
2009,02,25,04,46,3.60
2009,02,25,04,47,3.60
2009,02,25,04,48,3.60
2009,02,25,04,49,3.60
2009,02,25,04,50,3.50
2009,02,25,04,51,3.50
2009,02,25,04,52,3.50
2009,02,25,04,53,3.40
2009,02,25,04,54,3.40
2009,02,25,04,55,3.40
2009,02,25,04,56,3.30
2009,02,25,04,57,3.30
2009,02,25,04,58,3.20
2009,02,25,04,59,3.20
2009,02,25,05,00,3.20
2009,02,25,05,01,3.20
2009,02,25,05,02,3.20
2009,02,25,05,03,3.20
2009,02,25,05,04,3.20
2009,02,25,05,05,3.20
2009,02,25,05,06,3.20
2009,02,25,05,07,3.10
2009,02,25,05,08,3.10
2009,02,25,05,09,3.10
2009,02,25,05,10,3.10
2009,02,25,05,11,3.10
2009,02,25,05,12,3.00
2009,02,25,05,13,3.00
2009,02,25,05,14,3.00
2009,02,25,05,15,3.00
2009,02,25,05,16,2.90
2009,02,25,05,17,2.90
2009,02,25,05,18,2.80
2009,02,25,05,19,2.80
2009,02,25,05,20,2.80
2009,02,25,05,21,2.80
2009,02,25,05,22,2.80
2009,02,25,05,23,2.80
2009,02,25,05,24,2.80
2009,02,25,05,25,2.70
2009,02,25,05,26,2.70
2009,02,25,05,27,2.80
2009,02,25,05,28,2.80
2009,02,25,05,29,2.80
2009,02,25,05,30,2.90
2009,02,25,05,31,3.00
2009,02,25,05,32,3.10
2009,02,25,05,33,3.10
2009,02,25,05,34,3.20
2009,02,25,05,35,3.20
2009,02,25,05,36,3.30
2009,02,25,05,37,3.40
2009,02,25,05,38,3.50
2009,02,25,05,39,3.50
2009,02,25,05,40,3.60
2009,02,25,05,41,3.70
2009,02,25,05,42,3.70
2009,02,25,05,43,3.80
2009,02,25,05,44,3.80
2009,02,25,05,45,3.80
2009,02,25,05,46,3.80
2009,02,25,05,47,3.80
2009,02,25,05,48,3.80
2009,02,25,05,49,3.80
2009,02,25,05,50,3.80
2009,02,25,05,51,3.90
2009,02,25,05,52,3.90
2009,02,25,05,53,3.90
2009,02,25,05,54,3.90
2009,02,25,05,55,3.90
2009,02,25,05,56,3.90
2009,02,25,05,57,4.00
2009,02,25,05,58,4.00
2009,02,25,05,59,4.10
2009,02,25,06,00,4.10
2009,02,25,06,01,4.10
2009,02,25,06,02,4.20
2009,02,25,06,03,4.20
2009,02,25,06,04,4.10
2009,02,25,06,05,4.10
2009,02,25,06,06,4.10
2009,02,25,06,07,4.10
2009,02,25,06,08,4.10
2009,02,25,06,09,4.10
2009,02,25,06,10,4.10
2009,02,25,06,11,4.10
2009,02,25,06,12,4.10
2009,02,25,06,13,4.10
2009,02,25,06,14,4.10
2009,02,25,06,15,4.10
2009,02,25,06,16,4.10
2009,02,25,06,17,4.10
2009,02,25,06,18,4.10
2009,02,25,06,19,4.10
2009,02,25,06,20,4.10
2009,02,25,06,21,4.10
2009,02,25,06,22,4.10
2009,02,25,06,23,4.00
2009,02,25,06,24,4.00
2009,02,25,06,25,4.00
2009,02,25,06,26,4.00
2009,02,25,06,27,4.00
2009,02,25,06,28,3.90
2009,02,25,06,29,3.90
2009,02,25,06,30,3.90
2009,02,25,06,31,3.90
2009,02,25,06,32,3.90
2009,02,25,06,33,3.80
2009,02,25,06,34,3.80
2009,02,25,06,35,3.80
2009,02,25,06,36,3.70
2009,02,25,06,37,3.70
2009,02,25,06,38,3.60
2009,02,25,06,39,3.50
2009,02,25,06,40,3.40
2009,02,25,06,41,3.40
2009,02,25,06,42,3.40
2009,02,25,06,43,3.30
2009,02,25,06,44,3.30
2009,02,25,06,45,3.30
2009,02,25,06,46,3.30
2009,02,25,06,47,3.20
2009,02,25,06,48,3.20
2009,02,25,06,49,3.30
2009,02,25,06,50,3.30
2009,02,25,06,51,3.30
2009,02,25,06,52,3.30
2009,02,25,06,53,3.30
2009,02,25,06,54,3.30
2009,02,25,06,55,3.30
2009,02,25,06,56,3.30
2009,02,25,06,57,3.30
2009,02,25,06,58,3.30
2009,02,25,06,59,3.30
2009,02,25,07,00,3.30
2009,02,25,07,01,3.30
2009,02,25,07,02,3.30
2009,02,25,07,03,3.30
2009,02,25,07,04,3.30
2009,02,25,07,05,3.30
2009,02,25,07,06,3.40
2009,02,25,07,07,3.40
2009,02,25,07,08,3.40
2009,02,25,07,09,3.40
2009,02,25,07,10,3.40
2009,02,25,07,11,3.40
2009,02,25,07,12,3.40
2009,02,25,07,13,3.40
2009,02,25,07,14,3.40
2009,02,25,07,15,3.40
2009,02,25,07,16,3.40
2009,02,25,07,17,3.30
2009,02,25,07,18,3.30
2009,02,25,07,19,3.30
2009,02,25,07,20,3.30
2009,02,25,07,21,3.30
2009,02,25,07,22,3.30
2009,02,25,07,23,3.30
2009,02,25,07,24,3.30
2009,02,25,07,25,3.30
2009,02,25,07,26,3.30
2009,02,25,07,27,3.30
2009,02,25,07,28,3.30
2009,02,25,07,29,3.20
2009,02,25,07,30,3.20
2009,02,25,07,31,3.20
2009,02,25,07,32,3.10
2009,02,25,07,33,3.10
2009,02,25,07,34,3.10
2009,02,25,07,35,3.00
2009,02,25,07,36,3.00
2009,02,25,07,37,3.00
2009,02,25,07,38,2.90
2009,02,25,07,39,2.90
2009,02,25,07,40,2.90
2009,02,25,07,41,2.90
2009,02,25,07,42,2.90
2009,02,25,07,43,2.90
2009,02,25,07,44,2.90
2009,02,25,07,45,2.90
2009,02,25,07,46,2.90
2009,02,25,07,47,2.90
2009,02,25,07,48,2.90
2009,02,25,07,49,2.90
2009,02,25,07,50,2.80
2009,02,25,07,51,2.80
2009,02,25,07,52,2.80
2009,02,25,07,53,2.80
2009,02,25,07,54,2.80
2009,02,25,07,55,2.80
2009,02,25,07,56,2.80
2009,02,25,07,57,2.80
2009,02,25,07,58,2.80
2009,02,25,07,59,2.80
2009,02,25,08,00,2.80
2009,02,25,08,01,2.70
2009,02,25,08,02,2.70
2009,02,25,08,03,2.80
2009,02,25,08,04,2.80
2009,02,25,08,05,2.80
2009,02,25,08,06,2.90
2009,02,25,08,07,2.90
2009,02,25,08,08,2.90
2009,02,25,08,09,3.00
2009,02,25,08,10,3.00
2009,02,25,08,11,3.10
2009,02,25,08,12,3.10
2009,02,25,08,13,3.20
2009,02,25,08,14,3.30
2009,02,25,08,15,3.40
2009,02,25,08,16,3.40
2009,02,25,08,17,3.40
2009,02,25,08,18,3.50
2009,02,25,08,19,3.50
2009,02,25,08,20,3.60
2009,02,25,08,21,3.60
2009,02,25,08,22,3.70
2009,02,25,08,23,3.70
2009,02,25,08,24,3.80
2009,02,25,08,25,3.80
2009,02,25,08,26,3.80
2009,02,25,08,27,3.90
2009,02,25,08,28,3.90
2009,02,25,08,29,3.90
2009,02,25,08,30,4.00
2009,02,25,08,31,4.10
2009,02,25,08,32,4.10
2009,02,25,08,33,4.20
2009,02,25,08,34,4.20
2009,02,25,08,35,4.20
2009,02,25,08,36,4.20
2009,02,25,08,37,4.30
2009,02,25,08,38,4.30
2009,02,25,08,39,4.40
2009,02,25,08,40,4.50
2009,02,25,08,41,4.60
2009,02,25,08,42,4.70
2009,02,25,08,43,4.80
2009,02,25,08,44,4.80
2009,02,25,08,45,4.90
2009,02,25,08,46,4.90
2009,02,25,08,47,5.00
2009,02,25,08,48,5.00
2009,02,25,08,49,5.00
2009,02,25,08,50,5.10
2009,02,25,08,51,5.00
2009,02,25,08,52,4.90
2009,02,25,08,53,4.90
2009,02,25,08,54,4.80
2009,02,25,08,55,4.80
2009,02,25,08,56,4.70
2009,02,25,08,57,4.70
2009,02,25,08,58,4.70
2009,02,25,08,59,4.70
2009,02,25,09,00,4.70
2009,02,25,09,01,4.70
2009,02,25,09,02,4.90
2009,02,25,09,03,5.10
2009,02,25,09,04,5.30
2009,02,25,09,05,5.40
2009,02,25,09,06,5.50
2009,02,25,09,07,5.50
2009,02,25,09,08,5.40
2009,02,25,09,09,5.40
2009,02,25,09,10,5.40
2009,02,25,09,11,5.30
2009,02,25,09,12,5.30
2009,02,25,09,13,5.30
2009,02,25,09,14,5.30
2009,02,25,09,15,5.30
2009,02,25,09,16,5.30
2009,02,25,09,17,5.30
2009,02,25,09,18,5.20
2009,02,25,09,19,5.30
2009,02,25,09,20,5.30
2009,02,25,09,21,5.40
2009,02,25,09,22,5.40
2009,02,25,09,23,5.40
2009,02,25,09,24,5.40
2009,02,25,09,25,5.50
2009,02,25,09,26,5.50
2009,02,25,09,27,5.60
2009,02,25,09,28,5.70
2009,02,25,09,29,5.80
2009,02,25,09,30,5.90
2009,02,25,09,31,6.00
2009,02,25,09,32,6.20
2009,02,25,09,33,6.30
2009,02,25,09,34,6.50
2009,02,25,09,35,6.50
2009,02,25,09,36,6.60
2009,02,25,09,37,6.60
2009,02,25,09,38,6.60
2009,02,25,09,39,6.60
2009,02,25,09,40,6.70
2009,02,25,09,41,6.70
2009,02,25,09,42,6.70
2009,02,25,09,43,6.70
2009,02,25,09,44,6.70
2009,02,25,09,45,6.70
2009,02,25,09,46,6.70
2009,02,25,09,47,6.70
2009,02,25,09,48,6.70
2009,02,25,09,49,6.70
2009,02,25,09,50,6.60
2009,02,25,09,51,6.50
2009,02,25,09,52,6.50
2009,02,25,09,53,6.40
2009,02,25,09,54,6.40
2009,02,25,09,55,6.30
2009,02,25,09,56,6.30
2009,02,25,09,57,6.30
2009,02,25,09,58,6.30
2009,02,25,09,59,6.30
2009,02,25,10,00,6.30
2009,02,25,10,01,6.40
2009,02,25,10,02,6.40
2009,02,25,10,03,6.40
2009,02,25,10,04,6.60
2009,02,25,10,05,6.70
2009,02,25,10,06,6.80
2009,02,25,10,07,6.90
2009,02,25,10,08,6.90
2009,02,25,10,09,6.90
2009,02,25,10,10,7.00
2009,02,25,10,11,7.00
2009,02,25,10,12,7.10
2009,02,25,10,13,7.10
2009,02,25,10,14,7.10
2009,02,25,10,15,7.10
2009,02,25,10,16,7.10
2009,02,25,10,17,7.20
2009,02,25,10,18,7.30
2009,02,25,10,19,7.40
2009,02,25,10,20,7.40
2009,02,25,10,21,7.40
2009,02,25,10,22,7.50
2009,02,25,10,23,7.50
2009,02,25,10,24,7.40
2009,02,25,10,25,7.30
2009,02,25,10,26,7.10
2009,02,25,10,27,7.00
2009,02,25,10,28,6.80
2009,02,25,10,29,6.60
2009,02,25,10,30,6.50
2009,02,25,10,31,6.50
2009,02,25,10,32,6.50
2009,02,25,10,33,6.50
2009,02,25,10,34,6.50
2009,02,25,10,35,6.50
2009,02,25,10,36,6.60
2009,02,25,10,37,6.60
2009,02,25,10,38,6.60
2009,02,25,10,39,6.60
2009,02,25,10,40,6.60
2009,02,25,10,41,6.50
2009,02,25,10,42,6.50
2009,02,25,10,43,6.40
2009,02,25,10,44,6.40
2009,02,25,10,45,6.40
2009,02,25,10,46,6.30
2009,02,25,10,47,6.40
2009,02,25,10,48,6.40
2009,02,25,10,49,6.40
2009,02,25,10,50,6.40
2009,02,25,10,51,6.40
2009,02,25,10,52,6.40
2009,02,25,10,53,6.40
2009,02,25,10,54,6.40
2009,02,25,10,55,6.40
2009,02,25,10,56,6.30
2009,02,25,10,57,6.40
2009,02,25,10,58,6.40
2009,02,25,10,59,6.50
2009,02,25,11,00,6.60
2009,02,25,11,01,6.70
2009,02,25,11,02,6.80
2009,02,25,11,03,6.80
2009,02,25,11,04,6.80
2009,02,25,11,05,6.90
2009,02,25,11,06,6.80
2009,02,25,11,07,6.80
2009,02,25,11,08,6.80
2009,02,25,11,09,6.70
2009,02,25,11,10,6.70
2009,02,25,11,11,6.70
2009,02,25,11,12,6.70
2009,02,25,11,13,6.70
2009,02,25,11,14,6.70
2009,02,25,11,15,6.80
2009,02,25,11,16,6.80
2009,02,25,11,17,6.80
2009,02,25,11,18,6.80
2009,02,25,11,19,6.80
2009,02,25,11,20,6.70
2009,02,25,11,21,6.60
2009,02,25,11,22,6.60
2009,02,25,11,23,6.50
2009,02,25,11,24,6.40
2009,02,25,11,25,6.40
2009,02,25,11,26,6.30
2009,02,25,11,27,6.30
2009,02,25,11,28,6.30
2009,02,25,11,29,6.30
2009,02,25,11,30,6.30
2009,02,25,11,31,6.30
2009,02,25,11,32,6.30
2009,02,25,11,33,6.30
2009,02,25,11,34,6.30
2009,02,25,11,35,6.40
2009,02,25,11,36,6.40
2009,02,25,11,37,6.50
2009,02,25,11,38,6.50
2009,02,25,11,39,6.60
2009,02,25,11,40,6.50
2009,02,25,11,41,6.40
2009,02,25,11,42,6.40
2009,02,25,11,43,6.30
2009,02,25,11,44,6.30
2009,02,25,11,45,6.30
2009,02,25,11,46,6.20
2009,02,25,11,47,6.10
2009,02,25,11,48,6.00
2009,02,25,11,49,5.90
2009,02,25,11,50,5.90
2009,02,25,11,51,5.90
2009,02,25,11,52,6.00
2009,02,25,11,53,6.10
2009,02,25,11,54,6.10
2009,02,25,11,55,6.20
2009,02,25,11,56,6.30
2009,02,25,11,57,6.40
2009,02,25,11,58,6.50
2009,02,25,11,59,6.60
2009,02,25,12,00,6.70
2009,02,25,12,01,6.80
2009,02,25,12,02,6.80
2009,02,25,12,03,6.80
2009,02,25,12,04,6.70
2009,02,25,12,05,6.60
2009,02,25,12,06,6.50
2009,02,25,12,07,6.50
2009,02,25,12,08,6.40
2009,02,25,12,09,6.40
2009,02,25,12,10,6.40
2009,02,25,12,11,6.30
2009,02,25,12,12,6.20
2009,02,25,12,13,6.00
2009,02,25,12,14,5.90
2009,02,25,12,15,5.90
2009,02,25,12,16,5.80
2009,02,25,12,17,5.70
2009,02,25,12,18,5.70
2009,02,25,12,19,5.70
2009,02,25,12,20,5.70
2009,02,25,12,21,5.70
2009,02,25,12,22,5.70
2009,02,25,12,23,5.80
2009,02,25,12,24,5.70
2009,02,25,12,25,5.60
2009,02,25,12,26,5.60
2009,02,25,12,27,5.50
2009,02,25,12,28,5.40
2009,02,25,12,29,5.30
2009,02,25,12,30,5.30
2009,02,25,12,31,5.30
2009,02,25,12,32,5.20
2009,02,25,12,33,5.20
2009,02,25,12,34,5.20
2009,02,25,12,35,5.20
2009,02,25,12,36,5.20
2009,02,25,12,37,5.10
2009,02,25,12,38,5.20
2009,02,25,12,39,5.20
2009,02,25,12,40,5.20
2009,02,25,12,41,5.20
2009,02,25,12,42,5.20
2009,02,25,12,43,5.20
2009,02,25,12,44,5.20
2009,02,25,12,45,5.10
2009,02,25,12,46,5.20
2009,02,25,12,47,5.20
2009,02,25,12,48,5.20
2009,02,25,12,49,5.30
2009,02,25,12,50,5.30
2009,02,25,12,51,5.30
2009,02,25,12,52,5.30
2009,02,25,12,53,5.40
2009,02,25,12,54,5.40
2009,02,25,12,55,5.50
2009,02,25,12,56,5.50
2009,02,25,12,57,5.40
2009,02,25,12,58,5.40
2009,02,25,12,59,5.30
2009,02,25,13,00,5.20
2009,02,25,13,01,5.10
2009,02,25,13,02,5.10
2009,02,25,13,03,5.00
2009,02,25,13,04,5.00
2009,02,25,13,05,4.90
2009,02,25,13,06,4.90
2009,02,25,13,07,4.80
2009,02,25,13,08,4.70
2009,02,25,13,09,4.70
2009,02,25,13,10,4.70
2009,02,25,13,11,4.70
2009,02,25,13,12,4.70
2009,02,25,13,13,4.70
2009,02,25,13,14,4.70
2009,02,25,13,15,4.60
2009,02,25,13,16,4.60
2009,02,25,13,17,4.60
2009,02,25,13,18,4.50
2009,02,25,13,19,4.50
2009,02,25,13,20,4.50
2009,02,25,13,21,4.40
2009,02,25,13,22,4.40
2009,02,25,13,23,4.30
2009,02,25,13,24,4.30
2009,02,25,13,25,4.20
2009,02,25,13,26,4.20
2009,02,25,13,27,4.20
2009,02,25,13,28,4.20
2009,02,25,13,29,4.20
2009,02,25,13,30,4.20
2009,02,25,13,31,4.20
2009,02,25,13,32,4.10
2009,02,25,13,33,4.10
2009,02,25,13,34,4.00
2009,02,25,13,35,3.90
2009,02,25,13,36,3.80
2009,02,25,13,37,3.70
2009,02,25,13,38,3.60
2009,02,25,13,39,3.60
2009,02,25,13,40,3.50
2009,02,25,13,41,3.40
2009,02,25,13,42,3.30
2009,02,25,13,43,3.30
2009,02,25,13,44,3.20
2009,02,25,13,45,3.20
2009,02,25,13,46,3.20
2009,02,25,13,47,3.10
2009,02,25,13,48,3.00
2009,02,25,13,49,3.00
2009,02,25,13,50,2.90
2009,02,25,13,51,2.80
2009,02,25,13,52,2.80
2009,02,25,13,53,2.80
2009,02,25,13,54,2.70
2009,02,25,13,55,2.70
2009,02,25,13,56,2.70
2009,02,25,13,57,2.70
2009,02,25,13,58,2.60
2009,02,25,13,59,2.60
2009,02,25,14,00,2.60
2009,02,25,14,01,2.50
2009,02,25,14,02,2.50
2009,02,25,14,03,2.40
2009,02,25,14,04,2.40
2009,02,25,14,05,2.30
2009,02,25,14,06,2.20
2009,02,25,14,07,2.20
2009,02,25,14,08,2.10
2009,02,25,14,09,2.00
2009,02,25,14,10,1.90
2009,02,25,14,11,1.90
2009,02,25,14,12,1.90
2009,02,25,14,13,1.80
2009,02,25,14,14,1.80
2009,02,25,14,15,1.80
2009,02,25,14,16,1.80
2009,02,25,14,17,1.70
2009,02,25,14,18,1.70
2009,02,25,14,19,1.70
2009,02,25,14,20,1.70
2009,02,25,14,21,1.60
2009,02,25,14,22,1.60
2009,02,25,14,23,1.50
2009,02,25,14,24,1.50
2009,02,25,14,25,1.50
2009,02,25,14,26,1.40
2009,02,25,14,27,1.30
2009,02,25,14,28,1.30
2009,02,25,14,29,1.30
2009,02,25,14,30,1.30
2009,02,25,14,31,1.30
2009,02,25,14,32,1.30
2009,02,25,14,33,1.30
2009,02,25,14,34,1.30
2009,02,25,14,35,1.30
2009,02,25,14,36,1.30
2009,02,25,14,37,1.30
2009,02,25,14,38,1.30
2009,02,25,14,39,1.30
2009,02,25,14,40,1.30
2009,02,25,14,41,1.30
2009,02,25,14,42,1.30
2009,02,25,14,43,1.30
2009,02,25,14,44,1.30
2009,02,25,14,45,1.30
2009,02,25,14,46,1.20
2009,02,25,14,47,1.20
2009,02,25,14,48,1.20
2009,02,25,14,49,1.20
2009,02,25,14,50,1.20
2009,02,25,14,51,1.20
2009,02,25,14,52,1.20
2009,02,25,14,53,1.20
2009,02,25,14,54,1.20
2009,02,25,14,55,1.20
2009,02,25,14,56,1.20
2009,02,25,14,57,1.20
2009,02,25,14,58,1.20
2009,02,25,14,59,1.20
2009,02,25,15,00,1.10
2009,02,25,15,01,1.10
2009,02,25,15,02,1.10
2009,02,25,15,03,1.10
2009,02,25,15,04,1.10
2009,02,25,15,05,1.10
2009,02,25,15,06,1.10
2009,02,25,15,07,1.00
2009,02,25,15,08,1.00
2009,02,25,15,09,1.00
2009,02,25,15,10,1.00
2009,02,25,15,11,1.00
2009,02,25,15,12,0.90
2009,02,25,15,13,0.90
2009,02,25,15,14,0.90
2009,02,25,15,15,0.90
2009,02,25,15,16,0.90
2009,02,25,15,17,1.00
2009,02,25,15,18,1.00
2009,02,25,15,19,1.00
2009,02,25,15,20,1.10
2009,02,25,15,21,1.10
2009,02,25,15,22,1.10
2009,02,25,15,23,1.20
2009,02,25,15,24,1.20
2009,02,25,15,25,1.30
2009,02,25,15,26,1.30
2009,02,25,15,27,1.30
2009,02,25,15,28,1.30
2009,02,25,15,29,1.30
2009,02,25,15,30,1.30
2009,02,25,15,31,1.30
2009,02,25,15,32,1.30
2009,02,25,15,33,1.30
2009,02,25,15,34,1.30
2009,02,25,15,35,1.30
2009,02,25,15,36,1.30
2009,02,25,15,37,1.30
2009,02,25,15,38,1.30
2009,02,25,15,39,1.30
2009,02,25,15,40,1.30
2009,02,25,15,41,1.30
2009,02,25,15,42,1.30
2009,02,25,15,43,1.30
2009,02,25,15,44,1.30
2009,02,25,15,45,1.30
2009,02,25,15,46,1.30
2009,02,25,15,47,1.30
2009,02,25,15,48,1.30
2009,02,25,15,49,1.30
2009,02,25,15,50,1.30
2009,02,25,15,51,1.30
2009,02,25,15,52,1.30
2009,02,25,15,53,1.30
2009,02,25,15,54,1.30
2009,02,25,15,55,1.30
2009,02,25,15,56,1.30
2009,02,25,15,57,1.30
2009,02,25,15,58,1.30
2009,02,25,15,59,1.30
2009,02,25,16,00,1.30
2009,02,25,16,01,1.20
2009,02,25,16,02,1.20
2009,02,25,16,03,1.20
2009,02,25,16,04,1.20
2009,02,25,16,05,1.10
2009,02,25,16,06,1.10
2009,02,25,16,07,1.10
2009,02,25,16,08,1.00
2009,02,25,16,09,1.00
2009,02,25,16,10,0.90
2009,02,25,16,11,0.90
2009,02,25,16,12,0.90
2009,02,25,16,13,0.80
2009,02,25,16,14,0.80
2009,02,25,16,15,0.80
2009,02,25,16,16,0.80
2009,02,25,16,17,0.80
2009,02,25,16,18,0.80
2009,02,25,16,19,0.70
2009,02,25,16,20,0.70
2009,02,25,16,21,0.70
2009,02,25,16,22,0.70
2009,02,25,16,23,0.70
2009,02,25,16,24,0.60
2009,02,25,16,25,0.60
2009,02,25,16,26,0.60
2009,02,25,16,27,0.60
2009,02,25,16,28,0.60
2009,02,25,16,29,0.60
2009,02,25,16,30,0.60
2009,02,25,16,31,0.60
2009,02,25,16,32,0.60
2009,02,25,16,33,0.60
2009,02,25,16,34,0.60
2009,02,25,16,35,0.60
2009,02,25,16,36,0.60
2009,02,25,16,37,0.60
2009,02,25,16,38,0.60
2009,02,25,16,39,0.50
2009,02,25,16,40,0.50
2009,02,25,16,41,0.50
2009,02,25,16,42,0.50
2009,02,25,16,43,0.50
2009,02,25,16,44,0.50
2009,02,25,16,45,0.50
2009,02,25,16,46,0.50
2009,02,25,16,47,0.50
2009,02,25,16,48,0.50
2009,02,25,16,49,0.50
2009,02,25,16,50,0.50
2009,02,25,16,51,0.40
2009,02,25,16,52,0.40
2009,02,25,16,53,0.40
2009,02,25,16,54,0.40
2009,02,25,16,55,0.40
2009,02,25,16,56,0.40
2009,02,25,16,57,0.40
2009,02,25,16,58,0.40
2009,02,25,16,59,0.40
2009,02,25,17,00,0.40
2009,02,25,17,01,0.40
2009,02,25,17,02,0.30
2009,02,25,17,03,0.30
2009,02,25,17,04,0.30
2009,02,25,17,05,0.30
2009,02,25,17,06,0.30
2009,02,25,17,07,0.30
2009,02,25,17,08,0.40
2009,02,25,17,09,0.30
2009,02,25,17,10,0.30
2009,02,25,17,11,0.40
2009,02,25,17,12,0.40
2009,02,25,17,13,0.30
2009,02,25,17,14,0.30
2009,02,25,17,15,0.30
2009,02,25,17,16,0.30
2009,02,25,17,17,0.30
2009,02,25,17,18,0.30
2009,02,25,17,19,0.30
2009,02,25,17,20,0.30
2009,02,25,17,21,0.30
2009,02,25,17,22,0.30
2009,02,25,17,23,0.30
2009,02,25,17,24,0.30
2009,02,25,17,25,0.30
2009,02,25,17,26,0.30
2009,02,25,17,27,0.30
2009,02,25,17,28,0.30
2009,02,25,17,29,0.30
2009,02,25,17,30,0.30
2009,02,25,17,31,0.30
2009,02,25,17,32,0.30
2009,02,25,17,33,0.30
2009,02,25,17,34,0.30
2009,02,25,17,35,0.30
2009,02,25,17,36,0.30
2009,02,25,17,37,0.30
2009,02,25,17,38,0.30
2009,02,25,17,39,0.30
2009,02,25,17,40,0.20
2009,02,25,17,41,0.20
2009,02,25,17,42,0.20
2009,02,25,17,43,0.20
2009,02,25,17,44,0.20
2009,02,25,17,45,0.20
2009,02,25,17,46,0.20
2009,02,25,17,47,0.20
2009,02,25,17,48,0.20
2009,02,25,17,49,0.20
2009,02,25,17,50,0.20
2009,02,25,17,51,0.20
2009,02,25,17,52,0.20
2009,02,25,17,53,0.20
2009,02,25,17,54,0.20
2009,02,25,17,55,0.20
2009,02,25,17,56,0.20
2009,02,25,17,57,0.20
2009,02,25,17,58,0.20
2009,02,25,17,59,0.20
2009,02,25,18,00,0.20
2009,02,25,18,01,0.20
2009,02,25,18,02,0.20
2009,02,25,18,03,0.20
2009,02,25,18,04,0.20
2009,02,25,18,05,0.20
2009,02,25,18,06,0.20